Weather History for Medford, WI

Change the Weather History Date:

Wednesday, May 8, 2013

  Actual Average Record
Temperature  
Mean Temperature 60 °F -  
Max Temperature 77 °F 62 °F 85 °F (1953)
Min Temperature 44 °F 41 °F 24 °F (1948)
Degree Days  
Heating Degree Days 4    
Growing Degree Days 10 (Base 50)    
Moisture  
Dew Point 42 °F    
Average Humidity 49    
Maximum Humidity 93    
Minimum Humidity 24    
Precipitation  
Precipitation 0.00 in - - ()
Sea Level Pressure  
Sea Level Pressure 30.00 in    
Wind  
Wind Speed 3 mph (SE)    
Max Wind Speed 10 mph    
Max Gust Speed -    
Visibility 10 miles    
Events      
Averages and records for this station are not official NWS values.
T = Trace of Precipitation, MM = Missing Value Source: NWS Daily Summary

Daily Weather History Graph

Daily Weather History Graph

Search for Another Location

Airport:

Trip Planner

Search our weather history database for the weather conditions in past years. The results will help you decide how hot, cold, wet, or windy it might be!

Date:

Astronomy

May. 08, 2013 Rise Set
Actual Time 5:40 AM CDT 8:16 PM CDT
Civil Twilight 5:06 AM CDT 8:49 PM CDT
Nautical Twilight 4:24 AM CDT 9:31 PM CDT
Astronomical Twilight 3:36 AM CDT 10:20 PM CDT
Moon 4:51 AM CDT (5/8) 7:12 PM CDT (5/8)
Length of Visible Light 15h 42m
Length of Day
14h 35m
Waning Crescent, 2% of the Moon is Illuminated
May 8
Waning Crescent
May 9
New
May 17
First Quarter
May 24
Full
May 31
Last Quarter

Hourly Weather History & Observations

Time (CDT) Temp. Dew Point Humidity Pressure Visibility Wind Dir Wind Speed Gust Speed Precip Events Conditions
12:15 AM 62.6 °F 35.6 °F 37% 30.00 in 10.0 mi SE 5.8 mph - N/A   Clear
12:35 AM 60.8 °F 37.4 °F 42% 30.00 in 10.0 mi SSE 5.8 mph - N/A   Clear
12:55 AM 60.8 °F 37.4 °F 42% 30.00 in 10.0 mi SSE 4.6 mph - N/A   Clear
1:15 AM 60.8 °F 37.4 °F 42% 30.00 in 10.0 mi South 3.5 mph - N/A   Clear
1:35 AM 59.0 °F 37.4 °F 45% 30.00 in 10.0 mi SE 3.5 mph - N/A   Clear
1:55 AM 57.2 °F 37.4 °F 48% 30.00 in 10.0 mi Calm Calm - N/A   Clear
2:15 AM 55.4 °F 39.2 °F 54% 30.00 in 10.0 mi Calm Calm - N/A   Clear
2:35 AM 53.6 °F 41.0 °F 62% 29.99 in 10.0 mi Calm Calm - N/A   Clear
2:55 AM 50.0 °F 42.8 °F 76% 29.99 in 10.0 mi Calm Calm - N/A   Clear
3:15 AM 48.2 °F 42.8 °F 82% 29.99 in 10.0 mi East 4.6 mph - N/A   Clear
3:35 AM 50.0 °F 41.0 °F 71% 29.99 in 10.0 mi Calm Calm - N/A   Clear
3:55 AM 50.0 °F 42.8 °F 76% 29.99 in 10.0 mi Calm Calm - N/A   Clear
4:15 AM 48.2 °F 42.8 °F 82% 29.99 in 10.0 mi Calm Calm - N/A   Clear
4:35 AM 48.2 °F 42.8 °F 82% 29.99 in 10.0 mi Calm Calm - N/A   Clear
4:55 AM 46.4 °F 42.8 °F 87% 30.00 in 10.0 mi Calm Calm - N/A   Clear
5:15 AM 46.4 °F 42.8 °F 87% 30.00 in 10.0 mi Calm Calm - N/A   Clear
5:35 AM 44.6 °F 42.8 °F 93% 30.00 in 10.0 mi Calm Calm - N/A   Clear
5:55 AM 44.6 °F 42.8 °F 93% 30.01 in 10.0 mi Calm Calm - N/A   Clear
6:15 AM 44.6 °F 42.8 °F 93% 30.01 in 10.0 mi Calm Calm - N/A   Clear
6:35 AM 46.4 °F 42.8 °F 87% 30.01 in 10.0 mi Calm Calm - N/A   Clear
6:55 AM 48.2 °F 44.6 °F 87% 30.02 in 10.0 mi Calm Calm - N/A   Clear
7:15 AM 50.0 °F 44.6 °F 82% 30.02 in 10.0 mi Calm Calm - N/A   Clear
7:35 AM 53.6 °F 44.6 °F 72% 30.02 in 10.0 mi East 3.5 mph - N/A   Clear
7:55 AM 57.2 °F 46.4 °F 67% 30.02 in 10.0 mi Calm Calm - N/A   Clear
8:15 AM 60.8 °F 44.6 °F 55% 30.02 in 10.0 mi Calm Calm - N/A   Clear
8:35 AM 62.6 °F 46.4 °F 55% 30.03 in 10.0 mi Calm Calm - N/A   Clear
8:55 AM 64.4 °F 46.4 °F 52% 30.03 in 10.0 mi Calm Calm - N/A   Clear
9:15 AM 66.2 °F 46.4 °F 49% 30.03 in 10.0 mi Calm Calm - N/A   Clear
9:35 AM 68.0 °F 46.4 °F 46% 30.02 in 10.0 mi Calm Calm - N/A   Clear
9:55 AM 69.8 °F 46.4 °F 43% 30.02 in 10.0 mi Calm Calm - N/A   Clear
10:15 AM 71.6 °F 46.4 °F 41% 30.02 in 10.0 mi Calm Calm - N/A   Clear
10:35 AM 71.6 °F 42.8 °F 35% 30.02 in 10.0 mi Calm Calm - N/A   Clear
10:55 AM 73.4 °F 44.6 °F 36% 30.02 in 10.0 mi WNW 3.5 mph - N/A   Clear
11:15 AM 73.4 °F 42.8 °F 33% 30.02 in 10.0 mi Calm Calm - N/A   Clear
11:35 AM 73.4 °F 39.2 °F 29% 30.02 in 10.0 mi Calm Calm - N/A   Clear
11:55 AM 73.4 °F 41.0 °F 31% 30.02 in 10.0 mi South 3.5 mph - N/A   Clear
12:15 PM 75.2 °F 41.0 °F 29% 30.01 in 10.0 mi NW 5.8 mph - N/A   Clear
12:35 PM 75.2 °F 39.2 °F 27% 30.01 in 10.0 mi SSE 5.8 mph - N/A   Clear
12:55 PM 75.2 °F 35.6 °F 24% 30.01 in 10.0 mi South 6.9 mph - N/A   Clear
1:15 PM 73.4 °F 39.2 °F 29% 30.01 in 10.0 mi SSW 8.1 mph - N/A   Clear
1:35 PM 73.4 °F 39.2 °F 29% 30.01 in 10.0 mi SSW 6.9 mph - N/A   Clear
1:55 PM 73.4 °F 39.2 °F 29% 30.00 in 10.0 mi SSW 6.9 mph - N/A   Clear
2:15 PM 73.4 °F 37.4 °F 27% 30.00 in 10.0 mi Calm Calm - N/A   Clear
2:35 PM 75.2 °F 39.2 °F 27% 30.00 in 10.0 mi Calm Calm - N/A   Clear
2:55 PM 75.2 °F 37.4 °F 25% 29.99 in 10.0 mi West 4.6 mph - N/A   Clear
3:35 PM 75.2 °F 39.2 °F 27% 29.98 in 10.0 mi SSE 5.8 mph - N/A   Clear
3:55 PM 77.0 °F 39.2 °F 26% 29.98 in 10.0 mi SSE 5.8 mph - N/A   Clear
4:15 PM 75.2 °F 39.2 °F 27% 29.97 in 10.0 mi ENE 3.5 mph - N/A   Clear
4:35 PM 75.2 °F 39.2 °F 27% 29.97 in 10.0 mi SSW 5.8 mph - N/A   Clear
4:55 PM 75.2 °F 37.4 °F 25% 29.97 in 10.0 mi Calm Calm - N/A   Scattered Clouds
5:15 PM 75.2 °F 37.4 °F 25% 29.96 in 10.0 mi Calm Calm - N/A   Scattered Clouds
5:55 PM 75.2 °F 39.2 °F 27% 29.96 in 10.0 mi Calm Calm - N/A   Scattered Clouds
6:15 PM 75.2 °F 37.4 °F 25% 29.96 in 10.0 mi Calm Calm - N/A   Scattered Clouds
6:35 PM 73.4 °F 42.8 °F 33% 29.96 in 10.0 mi Calm Calm - N/A   Clear
6:55 PM 73.4 °F 42.8 °F 33% 29.96 in 10.0 mi Calm Calm - N/A   Clear
7:15 PM 73.4 °F 44.6 °F 36% 29.96 in 10.0 mi Calm Calm - N/A   Scattered Clouds
7:35 PM 73.4 °F 41.0 °F 31% 29.96 in 10.0 mi Calm Calm - N/A   Mostly Cloudy
7:55 PM 71.6 °F 46.4 °F 41% 29.96 in 10.0 mi Calm Calm - N/A   Scattered Clouds
8:35 PM 69.8 °F 46.4 °F 43% 29.97 in 10.0 mi Calm Calm - N/A   Mostly Cloudy
8:55 PM 68.0 °F 48.2 °F 49% 29.97 in 10.0 mi NNE 8.1 mph - N/A   Overcast
9:15 PM 66.2 °F 48.2 °F 52% 29.98 in 10.0 mi NNE 8.1 mph - N/A   Overcast
9:35 PM 66.2 °F 46.4 °F 49% 29.98 in 10.0 mi NNE 10.4 mph - N/A   Overcast
10:15 PM 64.4 °F 46.4 °F 52% 29.98 in 10.0 mi NNE 5.8 mph - N/A   Overcast
10:35 PM 64.4 °F 46.4 °F 52% 29.98 in 10.0 mi NNE 8.1 mph - N/A   Overcast
11:35 PM 62.6 °F 44.6 °F 52% 29.97 in 10.0 mi NNE 8.1 mph - N/A   Scattered Clouds
11:55 PM 62.6 °F 44.6 °F 52% 29.98 in 10.0 mi NE 9.2 mph - N/A   Scattered Clouds